RADUGA 26 [-]

Last updated on Jan. 23, 2021, 7:21 a.m. UTC

1 21016U 90112A   21022.86783017 -.00000281  00000-0  00000-0 0  9992
2 21016  14.5199 353.1783 0007911  50.7802 126.0395  1.00292210110499
UTC
Height (km)
Latitude
Longitude
Inclination
Orbital Period
UTC large
Height (km)
Speed (km/s)
/
Latitude / Longitude
Inclination (degrees)
Orbital Period (minutes)
Azimuth
Elevation
Range (km)
Doppler Factor
iOS Compass Heading
iOS Angle

Next 30 passes for location: Hong Kong

Rise time Rise Azimuth (degrees) Set time Set Azimuth (degrees) Duration Max altitude (degrees)

No matching passes for this satellites